Regional Weather Roundup
Issued by NWS

Home | Current Version | Previous Version | Graphics & Text | Print | Product List | Glossary On
Versions: 1 2 3 4 5 6 7 8 9 10 11 12 13 14 15 16 17 18 19 20 21 22 23 24 25 26 27 28 29 30 31 32 33 34 35 36 37 38 39 40 41 42 43 44 45 46 47 48 49 50
000
ASUS43 KIND 181009
RWRIN

WEATHER ROUNDUP FOR INDIANA
NATIONAL WEATHER SERVICE INDIANAPOLIS IN
500 AM EST WED JAN 18 2017

NOTE: "FAIR" INDICATES FEW OR NO CLOUDS BELOW 12,000 FEET WITH NO
SIGNIFICANT WEATHER AND/OR OBSTRUCTIONS TO VISIBILITY.

* - STATION DOES NOT REPORT WEATHER SUCH AS PRECIPITATION OR FOG.

+ - STATION NOT QUALITY CONTROLLED BY THE NATIONAL WEATHER SERVICE.
    USE DATA WITH CAUTION...ESPECIALLY DEWPOINT AND RELATIVE
    HUMIDITY OBSERVATIONS.

INZ001>003-010>013-019-020-181100-
NORTHWEST INDIANA

CITY           SKY/WX    TMP DP  RH WIND       PRES   REMARKS
KNOX *+        CLOUDY    32  25  74 W9        30.08R WCI  24
LA PORTE +     CLOUDY    33  33  98 W9        30.07S FOG     WCI  26
MICHIGAN CITY+ CLOUDY    34  34 100 W8        30.08R FOG     WCI  27
MONTICELLO +   CLOUDY    34  32  92 W10       30.11R WCI  26
RENSSELAER +   CLOUDY    34  34 100 W9        30.11S WCI  26
VALPARAISO     CLOUDY    35  34  96 W13       30.08R FOG     WCI  26

$$

LMZ046-743>745-181100-
SOUTHERN LAKE MICHIGAN

STATION/POSITION TIME  TEMP    WIND        PRES    WAVE
                       AIR SEA DIR/SP/G            HT
                 (UTC) (F)     (DEG/KT/KT) (MB)    (FT)
BURNS HARBOR     0940   35     240/ 10/ 14 1019.0R

$$

INZ004-005-014>016-021>024-181100-
NORTH CENTRAL INDIANA

CITY           SKY/WX    TMP DP  RH WIND       PRES   REMARKS
GOSHEN         CLOUDY    34  32  92 W13       30.05R FOG     WCI  25
LOGANSPORT +   CLOUDY    34  32  93 W12       30.11R WCI  25
PERU/GRISSOM   CLOUDY    36  36 100 W15       30.08R
ROCHESTER +    CLOUDY    36  36 100 W7        30.09R FOG
SOUTH BEND     CLOUDY    34  33  96 W13       30.06R FOG     WCI  25
WARSAW +       CLOUDY    34  32  93 W10       30.06R FOG     WCI  26

$$

INZ006>009-017-018-025>027-181100-
NORTHEAST INDIANA

CITY           SKY/WX    TMP DP  RH WIND       PRES   REMARKS
ANGOLA *+      CLOUDY    36  34  93 W8        30.02R
AUBURN +       CLOUDY    34  32  93 W10       30.05R FOG     WCI  26
FORT WAYNE     DRIZZLE   35  33  92 W14       30.06R FOG     WCI  26
HUNTINGTON +   CLOUDY    34  33  96 W10       30.07S FOG     WCI  26
KENDALLVILLE + CLOUDY    33  33 100 W13       30.03S FOG     WCI  24

$$

INZ028-029-035-036-043>045-051>053-181100-
WEST CENTRAL INDIANA

CITY           SKY/WX    TMP DP  RH WIND       PRES   REMARKS
CRAWFORDSVL +  CLOUDY    34  34 100 W10G23    30.13R WCI  26
GREENCASTLE +  CLOUDY    36  34  93 W7        30.13S FOG
LAFAYETTE      CLOUDY    35  33  92 W16       30.13R WCI  25
TERRE HAUTE    CLOUDY    38  34  85 W15       30.16R

$$

INZ030>032-037>040-046>048-054>057-064-065-181100-
CENTRAL INDIANA

CITY           SKY/WX    TMP DP  RH WIND       PRES   REMARKS
CP ATTERBURY + CLOUDY    36  34  93 W6        30.14S
FISHERS *+     CLOUDY    34  34 100 W12       30.12R WCI  25
FRANKFORT +    CLOUDY    38  36  93 W18G24    30.13R FOG
GREENWOOD *+   CLOUDY    37  37  97 W7        30.13S
INDIANAPOLIS   CLOUDY    36  34  92 W13       30.12S
-EAGLE CREEK   CLOUDY    37  34  89 W9        30.12R
KOKOMO +       CLOUDY    35  34  96 W17       30.10R WCI  25
MARION +       CLOUDY    34  34 100 W15       30.10R FOG     WCI  24
MT COMFORT *+  CLOUDY    36  34  93 W15       30.12R
SHELBYVILLE    CLOUDY    37  34  89 W8        30.12R
ZIONSVILLE +   CLOUDY    35  33  94 W10G17    30.12R WCI  27

$$

INZ033-034-041-042-049-050-058-059-181100-
EAST CENTRAL INDIANA

CITY           SKY/WX    TMP DP  RH WIND       PRES   REMARKS
MUNCIE         CLOUDY    37  33  85 W13G20    30.09R

$$

INZ060-061-067>069-081>083-085>088-181100-
SOUTHWEST INDIANA

CITY           SKY/WX    TMP DP  RH WIND       PRES   REMARKS
EVANSVILLE     CLOUDY    41  36  82 NW6       30.19S
HUNTINGBURG *+ CLOUDY    39  37  93 NW8       30.17S
WASHINGTON +   CLOUDY    39  37  92 NW9       30.17S

$$

INZ062-063-066-070>080-084-089>092-181100-
SOUTH CENTRAL AND SOUTHEAST INDIANA

CITY           SKY/WX    TMP DP  RH WIND       PRES   REMARKS
BLOOMINGTON    CLOUDY    38  34  85 W9        30.14R FOG
MADISON *+     CLOUDY    37  36  93 W10G16    30.15R
NORTH VERNON + DRIZZLE  N/A N/A N/A NW10      30.14R
SEYMOUR +      CLOUDY    41  37  87 W9        30.15  FOG

$$





USA.gov is the U.S. government's official web portal to all federal, state and local government web resources and services.